Stations météo

réclame
Mon MeteoGroup
Palermo/Punta Raisi, Italie (16405): Température de l'air & dewpoint: 19.06.2018 02:00:00 - 25.06.2018 02:00:00 (CEST)Palermo/Punta Raisi, Italie (16405): Vitesse du vent: 19.06.2018 02:00:00 - 25.06.2018 02:00:00 (CEST)Palermo/Punta Raisi, Italie (16405): Direction du vent: 19.06.2018 02:00:00 - 25.06.2018 02:00:00 (CEST)Palermo/Punta Raisi, Italie (16405): reduced air pressure: 19.06.2018 02:00:00 - 25.06.2018 02:00:00 (CEST)Palermo/Punta Raisi, Italie (16405): visibility: 19.06.2018 02:00:00 - 25.06.2018 02:00:00 (CEST)Palermo/Punta Raisi, Italie (16405): Quantités de précipitations: 19.06.2018 02:00:00 - 25.06.2018 02:00:00 (CEST)
Date & Time tt [°C] td [°C] ff [km/h] ff [knt] dd ppp [hPa] vv [km] rr [mm]
25.06.2018 02:00:00 - - - - - - - -
25.06.2018 01:00:00 23,0 18,0 18 10 ENE - 10 -
25.06.2018 00:00:00 23,0 18,0 18 10 NE - 10 -
24.06.2018 23:00:00 23,3 18,1 21 11 ENE 1014,0 10 0,0
24.06.2018 22:00:00 24,0 18,0 22 12 ENE - 10 -
24.06.2018 21:00:00 24,0 18,0 22 12 ENE - 10 -
24.06.2018 20:00:00 24,0 18,1 24 13 ENE 1013,6 10 -
24.06.2018 19:00:00 25,0 18,0 26 14 NE - 10 -
24.06.2018 18:00:00 25,0 19,0 26 14 NE - 10 -
24.06.2018 17:00:00 25,0 19,4 22 12 NE 1014,2 10 0,0
24.06.2018 16:00:00 25,0 19,0 22 12 NE - 10 -
24.06.2018 15:00:00 25,0 20,0 21 11 N - 10 -
24.06.2018 14:00:00 25,2 20,5 18 10 N 1015,0 10 -
24.06.2018 13:00:00 25,0 19,0 15 8 NNW - 10 -
24.06.2018 12:00:00 25,0 18,0 11 6 NW - 10 -
24.06.2018 11:00:00 23,8 17,6 11 6 WNW 1015,7 10 0,0
24.06.2018 10:00:00 23,0 18,0 13 7 WSW - 10 -
24.06.2018 09:00:00 23,0 17,0 11 6 WSW - 10 -
24.06.2018 08:00:00 22,6 17,6 11 6 SW 1014,9 10 -
24.06.2018 07:00:00 21,0 16,0 5 3 S - 10 -
24.06.2018 06:00:00 20,0 16,0 8 4 S - 10 -
24.06.2018 05:00:00 20,0 16,6 8 4 S 1014,3 - 0,0
24.06.2018 04:00:00 21,0 17,0 5 3 S - 10 -
24.06.2018 03:00:00 - - - - - - - -
24.06.2018 02:00:00 22,0 17,1 9 5 W 1014,6 10 -
24.06.2018 01:00:00 23,0 19,0 13 7 WNW - 10 -
24.06.2018 00:00:00 23,0 19,0 13 7 WNW - 10 -
23.06.2018 23:00:00 23,1 18,7 9 5 NW 1015,0 10 0,0
23.06.2018 22:00:00 23,0 18,0 8 4 NW - 10 -
23.06.2018 21:00:00 23,0 19,0 9 5 NNW - 10 -
23.06.2018 20:00:00 23,0 18,4 13 7 NNW 1013,9 10 -
23.06.2018 19:00:00 23,0 19,0 13 7 NNW - 10 -
23.06.2018 18:00:00 24,0 19,0 18 10 WNW - 10 -
23.06.2018 17:00:00 23,8 19,7 24 13 WNW 1014,1 10 0,0
23.06.2018 16:00:00 24,0 20,0 24 13 WNW - 10 -
23.06.2018 15:00:00 25,0 20,0 21 11 WNW - 10 -
23.06.2018 14:00:00 24,6 19,6 21 11 NW 1014,7 10 -
23.06.2018 13:00:00 25,0 20,0 18 10 NW - 10 -
23.06.2018 12:00:00 26,0 18,0 15 8 NE - 10 -
23.06.2018 11:00:00 26,4 19,2 22 12 WSW 1015,0 10 0,0
23.06.2018 10:00:00 26,0 18,0 21 11 SW - 10 -
23.06.2018 09:00:00 25,0 17,0 26 14 SSW - 10 -
23.06.2018 08:00:00 23,7 16,7 31 17 SSW 1014,4 10 -
23.06.2018 07:00:00 24,0 14,0 15 8 SW - 10 -
23.06.2018 06:00:00 24,0 13,0 13 7 S - 10 -
23.06.2018 05:00:00 24,2 13,6 21 11 SSW 1013,9 10 0,0
23.06.2018 04:00:00 23,0 15,0 8 4 SSW - 10 -
23.06.2018 03:00:00 22,0 15,0 4 2 - - 10 -
23.06.2018 02:00:00 22,1 15,4 4 2 - 1014,5 10 -
23.06.2018 01:00:00 22,0 16,0 9 5 SSW - 10 -
23.06.2018 00:00:00 22,0 16,0 5 3 S - 10 -
22.06.2018 23:00:00 22,9 17,4 4 2 SE 1014,7 - 0,0
22.06.2018 22:00:00 23,0 19,0 5 3 NE - 10 -
22.06.2018 21:00:00 23,0 20,0 4 2 - - 10 -
22.06.2018 20:00:00 23,6 20,2 5 3 NW 1014,5 10 -
22.06.2018 19:00:00 24,0 20,0 4 2 - - 10 -
22.06.2018 18:00:00 25,0 21,0 8 4 NW - 10 -
22.06.2018 17:00:00 24,3 20,8 13 7 NW 1014,7 10 0,0
22.06.2018 16:00:00 24,0 21,0 16 9 NW - 10 -
22.06.2018 15:00:00 25,0 20,0 15 8 NNW - 10 -
22.06.2018 14:00:00 24,9 19,7 16 9 NW 1015,4 10 -
22.06.2018 13:00:00 25,0 19,0 16 9 NW - 10 -
22.06.2018 12:00:00 24,0 19,0 16 9 NW - 10 -
22.06.2018 11:00:00 23,9 18,6 15 8 NW 1016,3 10 0,0
22.06.2018 10:00:00 23,0 17,0 16 9 W - 10 -
22.06.2018 09:00:00 23,0 19,0 21 11 SW - 10 -
22.06.2018 08:00:00 22,5 18,3 15 8 SW 1016,0 10 -
22.06.2018 07:00:00 21,0 18,0 5 3 SSW - 10 -
22.06.2018 06:00:00 20,0 18,0 5 3 SSE - 10 -
22.06.2018 05:00:00 20,8 18,7 11 6 SSW 1015,6 10 0,0
22.06.2018 04:00:00 20,0 18,0 9 5 S - 10 -
22.06.2018 03:00:00 22,0 19,0 4 2 S - 10 -
22.06.2018 02:00:00 21,4 18,4 5 3 S 1016,7 10 -
22.06.2018 01:00:00 22,0 19,0 5 3 SSW - 10 -
22.06.2018 00:00:00 22,0 19,0 4 2 - - 10 -
21.06.2018 23:00:00 22,9 19,4 4 2 - 1016,8 10 0,0
21.06.2018 22:00:00 23,0 20,0 5 3 NNE - 10 -
21.06.2018 21:00:00 23,0 19,0 5 3 NNE - 10 -
21.06.2018 20:00:00 23,6 19,6 8 4 NNE 1016,2 10 -
21.06.2018 19:00:00 24,0 19,0 9 5 N - 10 -
21.06.2018 18:00:00 24,0 18,0 11 6 N - 10 -
21.06.2018 17:00:00 24,6 19,1 5 3 N 1016,8 10 0,0
21.06.2018 16:00:00 24,0 20,0 8 4 WNW - 10 -
21.06.2018 15:00:00 25,0 20,0 11 6 NW - 10 -
21.06.2018 14:00:00 25,0 20,4 15 8 N 1017,5 10 -
21.06.2018 13:00:00 25,0 20,0 13 7 N - 10 -
21.06.2018 12:00:00 24,0 20,0 11 6 NNW - 10 -
21.06.2018 11:00:00 23,9 19,7 8 4 NW 1018,0 10 0,0
21.06.2018 10:00:00 23,0 20,0 9 5 W - 10 -
21.06.2018 09:00:00 23,0 19,0 8 4 WSW - 10 -
21.06.2018 08:00:00 22,1 19,1 4 2 - 1018,0 10 -
21.06.2018 07:00:00 21,0 19,0 2 1 E - 10 -
21.06.2018 06:00:00 20,0 18,0 5 3 SE - 10 -
21.06.2018 05:00:00 20,8 18,5 4 2 SE 1017,3 10 0,0
21.06.2018 04:00:00 21,0 17,0 5 3 SSE - 10 -
21.06.2018 03:00:00 21,0 18,0 4 2 SSW - 10 -
21.06.2018 02:00:00 20,9 16,8 5 3 SW 1017,8 10 -
21.06.2018 01:00:00 22,0 17,0 5 3 SSE - 10 -
21.06.2018 00:00:00 22,0 17,0 5 3 SSE - 10 -
20.06.2018 23:00:00 22,8 17,6 2 1 - 1018,4 10 0,0
20.06.2018 22:00:00 23,0 19,0 2 1 - - 10 -
20.06.2018 21:00:00 24,0 20,0 4 2 - - 10 -
20.06.2018 20:00:00 24,6 19,7 4 2 W 1017,3 10 -
20.06.2018 19:00:00 24,0 18,0 11 6 SW - 10 -
20.06.2018 18:00:00 23,0 19,0 21 11 SW - 10 -
20.06.2018 17:00:00 23,4 18,2 29 16 SSW 1017,3 7 0,0
20.06.2018 16:00:00 26,0 21,0 22 12 NE - 10 -
20.06.2018 15:00:00 25,0 21,0 22 12 NE - 10 -
20.06.2018 14:00:00 25,2 21,0 26 14 NE 1017,1 10 -
20.06.2018 13:00:00 26,0 21,0 24 13 NE - 10 -
20.06.2018 12:00:00 25,0 21,0 22 12 NE - 10 -
20.06.2018 11:00:00 25,2 20,8 18 10 NE 1017,3 10 0,0
20.06.2018 10:00:00 25,0 20,0 8 4 NNE - 10 -
20.06.2018 09:00:00 23,0 21,0 5 3 WSW - 10 -
20.06.2018 08:00:00 23,3 20,5 2 1 - 1017,2 10 -
20.06.2018 07:00:00 23,0 20,0 4 2 - - 10 -
20.06.2018 06:00:00 23,0 20,0 5 3 W - 10 -
20.06.2018 05:00:00 22,7 18,3 4 2 S 1016,3 10 0,0
20.06.2018 04:00:00 22,0 18,0 2 1 - - 10 -
20.06.2018 03:00:00 23,0 18,0 9 5 E - 10 -
20.06.2018 02:00:00 22,8 19,9 18 10 ENE 1016,0 10 -
20.06.2018 01:00:00 23,0 21,0 21 11 ENE - 10 -
20.06.2018 00:00:00 23,0 21,0 18 10 NE - 10 -
19.06.2018 23:00:00 23,6 20,6 18 10 ENE 1016,2 10 0,0
19.06.2018 22:00:00 24,0 21,0 21 11 NE - 10 -
19.06.2018 21:00:00 24,0 20,0 21 11 NE - 10 -
19.06.2018 20:00:00 24,4 20,3 24 13 NE 1015,0 10 -
19.06.2018 19:00:00 25,0 20,0 21 11 NE - 10 -
19.06.2018 18:00:00 25,0 21,0 18 10 NE - 10 -
19.06.2018 17:00:00 25,5 21,3 13 7 NNE 1015,2 10 0,0
19.06.2018 16:00:00 26,0 21,0 16 9 NNE - 10 -
19.06.2018 15:00:00 25,0 21,0 18 10 NNE - 10 -
19.06.2018 14:00:00 24,6 20,8 21 11 NNE 1015,0 10 -
19.06.2018 13:00:00 24,0 21,0 21 11 NNE - 10 -
19.06.2018 12:00:00 25,0 21,0 21 11 NNE - 10 -
19.06.2018 11:00:00 24,2 20,3 18 10 NNE 1015,1 10 0,0
19.06.2018 10:00:00 24,0 20,0 18 10 NNE - 10 -
19.06.2018 09:00:00 24,0 19,0 16 9 NNE - 10 -
19.06.2018 08:00:00 23,4 18,7 11 6 NE 1014,4 10 -
19.06.2018 07:00:00 22,0 19,0 9 5 NE - 10 -
19.06.2018 06:00:00 21,0 19,0 9 5 ENE - 10 -
19.06.2018 05:00:00 21,1 18,0 9 5 E 1013,4 10 0,0
19.06.2018 04:00:00 23,0 20,0 9 5 NNE - 10 -
19.06.2018 03:00:00 23,0 20,0 8 4 NNW - 10 -
19.06.2018 02:00:00 22,5 20,1 5 3 WNW 1013,5 10 -

tt = Température de l'air
td = dewpoint
ff = Vitesse du vent
dd = Direction du vent
ppp = reduced air pressure
vv = visibility
rr = Quantités de précipitations

stations d'obs. à proximité